If you wish to contribute or participate in the discussions about articles you are invited to join SKYbrary as a registered user

 Actions

Ahmedabad International Airport

From SKYbrary Wiki

VAAH
Airport
ICAO: VAAH
Summary
Name Ahmedabad International Airport
Region Asia and Pacific
Territory India IN.gif
Location Ahmedabad, Gujarat
Serving
Coordinates 23° 4' 28.50" N, 72° 37' 25.15" E
Runways
Designator Length Width Surface ROPS
5/23 3489 m11,446.85 ft <br /> 46 m150.919 ft <br /> PEM yes/yes


METAR
Observation VAAH 172100Z 18003KT 3000 BR SCT018 BKN080 27/24 Q1000 NOSIG
Station Ahmadabad
Date/Time 17 June 2021 21:00:00
Wind direction 180°
Wind speed 03 kts
Lowest cloud amount scattered clouds
Temperature 27°C
Dew point 24°C
Humidity 83%
QNH 1000 hPa
Weather condition n/a

Sardar Vallabhbhai Patel International Airport

ICAO: VAAH IATA: AMD

Description

Sardar Vallabhbhai Patel International Airport is located in the State of Gujarat 8 km4.32 nm <br />8,000 m <br />26,246.719 ft <br /> from the Ahmedabad railway station and services the cities of Ahmedabad and Gandhinagar.

Climatology

Hot, semi-arid/Steppe climate (Köppen climate classification BSh) - hot, sometimes extremely hot summers and mild to warm winters, with low annual precipitation.

Maps

Terrain

Loading map...

Airport Layout

Loading map...


Accidents & Serious Incidents at or in vicinity of VAAH

None on SKYbrary